This is the latest recevied weather packets stored in our database for station/object VU3OPZ-13. If no packets are shown the sender has not sent any weather packets the latest 10 day(s).
| Time | Temp. | Humidity | Pressure | Rain* | Wind** | Luminosity | Snow |
|---|---|---|---|---|---|---|---|
| 1788417776 | 27.78° C | 61% | 1010 hPa | 0 mm | - | - | - |
| 1788415971 | 27.78° C | 60% | 1011 hPa | 0 mm | - | - | - |
| 1788407467 | 25.56° C | 70% | 1012 hPa | 0 mm | - | - | - |
| 1788405663 | 23.33° C | 80% | 1013 hPa | 0 mm | - | - | - |
| 1788403858 | 23.33° C | 80% | 1013 hPa | 0 mm | - | - | - |
| 1788402054 | 22.22° C | 89% | 1012 hPa | 0 mm | - | - | - |
| 1788400250 | 22.22° C | 88% | 1012 hPa | 0 mm | - | - | - |
| 1788398446 | 20.56° C | 95% | 1011 hPa | 0 mm | - | - | - |
| 1788396641 | 20.56° C | 95% | 1011 hPa | 0 mm | - | - | - |
| 1788394837 | 20.56° C | 95% | 1010 hPa | 0 mm | - | - | - |
| 1788393033 | 20.56° C | 95% | 1010 hPa | 0 mm | - | - | - |
| 1788391228 | 21.11° C | 96% | 1010 hPa | 0 mm | - | - | - |
| 1788389424 | 20.56° C | 96% | 1010 hPa | 0 mm | - | - | - |
| 1788385815 | 21.11° C | 95% | 1010 hPa | 0 mm | - | - | - |
| 1788384011 | 21.11° C | 94% | 1010 hPa | 0 mm | - | - | - |
| 1788382207 | 21.11° C | 94% | 1010 hPa | 0 mm | - | - | - |
| 1788380402 | 21.67° C | 92% | 1011 hPa | 0 mm | - | - | - |
| 1788378598 | 21.67° C | 92% | 1011 hPa | 0 mm | - | - | - |
| 1788376794 | 21.67° C | 91% | 1012 hPa | 0 mm | - | - | - |
| 1788373295 | 22.22° C | 88% | 1013 hPa | 0 mm | - | - | - |
| 1788371490 | 22.22° C | 88% | 1013 hPa | 0 mm | - | - | - |
| 1788369685 | 22.22° C | 87% | 1013 hPa | 0 mm | - | - | - |
| 1788367881 | 22.22° C | 86% | 1013 hPa | 0 mm | - | - | - |
| 1788366081 | 22.78° C | 85% | 1013 hPa | 0 mm | - | - | - |
| 1788364272 | 22.78° C | 85% | 1013 hPa | 0 mm | - | - | - |
* Rain latest hour (hover to see other rain measurements)
** Current wind speed in m/s (hover to see current wind gust speed)